Simultaneous Nadir Overpasses (SNOs) Predictions

Prediction of SNOs between GOES-16 and LANDSAT-8 Satellite Orbit:

Table of predicted SNOs for the next 14.0 days since TLE Epoch: 3/13/2021
Index Date Time (GOES-16) GOES-16 Lat,Lon LANDSAT-8 Lat,Lon Distance(km) Time Diff (sec)
1 03/14/2021 03:09:28 -0.04, -75.19 0.09, -74.65 61.75 80
2 03/16/2021 02:57:15 -0.04, -75.20 0.69, -71.68 399.17 80
3 03/16/2021 15:18:30 0.04, -75.23 0.41, -76.84 183.89 80
4 03/18/2021 15:08:58 0.04, -75.24 -0.26, -73.89 154.12 80
5 03/19/2021 03:30:22 -0.04, -75.22 -0.84, -79.08 438.39 80
6 03/20/2021 14:56:45 0.03, -75.26 -0.87, -70.92 492.33 80
7 03/21/2021 03:18:09 -0.03, -75.24 -0.23, -76.12 100.17 80
8 03/23/2021 03:03:17 -0.03, -75.26 0.45, -73.17 238.37 80
9 03/23/2021 15:24:32 0.03, -75.29 0.66, -78.32 344.84 80
10 03/25/2021 15:12:19 0.02, -75.31 0.04, -75.36 5.79 80
